Location: Ellerstadt
(49.4644°N, 8.2615°E)
Time: 11:51:34
(UTC+00:00)

Cosmos 1703 Rocket - Pass Details

Date: 03 March 2021
Orbit: 604 x 634 km, 82.5° (Epoch: 12 April)

Event Time Altitude Azimuth Distance (km) Brightness Sun altitude
Rises 18:46:52 0° 350° (N) 2,915 7.3 -16.0°
Reaches altitude 10° 18:49:07 10° 350° (N) 1,999 6.4 -16.3°
Maximum altitude 18:53:34 88° 81° (E) 624 3.5 -17.1°
Drops below altitude 10° 18:57:55 10° 171° (S) 1,964 5.9 -17.7°
Enters shadow 18:59:32 - 171° (S) 2,622 6.6 -18.0°
